COSMOS 1275 DEB, 12675

Orbit data source: Space-Track

COSMOS 1275 DEB, 12675 is space debris in LEO originally from a launch on Thu, 04 Jun 1981 UTC launched from the Plesetsk Missile And Space Complex (PKMTR). Debris objects in space refer to the collection of defunct objects orbiting the Earth. Examples of debris include non-operational satellites, rocket bodies, and fragments generated from explosions, collisions, or faulty payload assembly.

Loading next visibility...
Identifier
12675, 1981-053AF
Orbit
LEO
Country
Flag of CISCIS
Related business
Manufacturer
Unknown
Mission
Spacecraft
Bus & Motor
Unknown
Mass
Unknown
Launch date (UTC)
1981-06-04 (44 years ago)
Launch vehicle
Unknown
Launch site
Plesetsk Missile And Space Complex (PKMTR)
Object type
Payload
Rocket body
Debris
Shape & HBR
Unknown
Radar Cross Section
Medium (>0.1 m² and <1 m²)

Expand to show TLE details & history
Last TLE update: 6 hours ago

TLE from 6 hours ago
0 COSMOS 1275 DEB
1 12675U 81053AF  25242.93361314  .00000840  00000-0  77500-3 0  9997
2 12675  82.9351 119.6316 0066367  22.5464 355.7993 13.80539613208492
Epoch: 2025-08-30T22:24Z
TLE epoch observation values (Epoch: 2025-08-30T22:24:24.175Z)
Latitude
18.13879°
Longitude
166.48477°
Altitude
915.744 km
Speed
7.42 km/s
True Right ascension
08h 07m 47s
True Declination
18° 02' 22"
Sunlit
Object was in daylight at epoch
Visualization orbit readout
Latitude
Unknown
Longitude
Unknown
Altitude
Unknown
Speed
Unknown
Apparent Right ascension
Unknown
Apparent Declination
Unknown
Sunlit
N/A
Visualization observer readout
Local Sidereal Time
20:16:07
Azimuth
Unknown
Elevation
Unknown
Doppler factor
Unknown
Orbital elements
Apogee altitude
1,007.81 km
Perigee altitude
910.42 km
Semi-major axis
7,337.252 km
Eccentricity
0.00664
Inclination
82.9351°
RAAN
119.6316°
Arg. of periapsis
22.5464°
True anomaly
355.74313°
Mean anomaly
355.7993°
Eccentric anomaly
355.77126°
Mean motion
3.45337 °/min
Orbital period
104.25 mins
BSTAR
0.000775
Loading maneuver chart data...
Computing Atmospheric mass density...
Loading historical data...
Loading historical data...
Loading historical data...
Loading historical data...
Loading historical data...
Loading historical data...
Loading historical data...

Documentation

Showing up to 5 results
|